DO5RS-5 Weather Reports


time (UTC)temp
C
wind
direction
speed
KPH
gust
KPH
rain 1hr
cm
rain 24hr
cm
rain mn
cm
humidity
%
barometer
mb
20260507223909 11 0.0 0.0 0.00 0.00 0.00 81 1022.0
20260507221905 11 0.0 0.0 0.00 0.00 0.00 81 1021.9
20260507220909 11 0.0 0.0 0.00 0.00 0.00 82 1021.8
20260507214920 11 0.0 0.0 0.00 0.00 0.00 82 1021.6
20260507213904 12 0.0 0.0 0.00 0.00 0.00 83 1021.6
20260507212905 12 0.0 0.0 0.00 0.00 0.00 83 1021.4
20260507211904 12 0.0 0.0 0.00 0.00 0.00 84 1021.4
20260507210906 12 0.0 0.0 0.00 0.00 0.00 84 1021.3
20260507205910 12 0.0 0.0 0.00 0.00 0.00 84 1021.3
20260507202908 12 0.0 0.0 0.00 0.00 0.00 84 1021.1
20260507200904 12 0.0 0.0 0.00 0.00 0.00 84 1020.9
20260507195905 12 0.0 0.0 0.00 0.00 0.00 84 1020.8
20260507194905 12 0.0 0.0 0.00 0.00 0.00 84 1020.7
20260507193909 12 0.0 0.0 0.00 0.00 0.00 84 1020.8
20260507191906 12 0.0 0.0 0.00 0.00 0.00 83 1020.0
20260507190905 12 0.0 0.0 0.00 0.00 0.00 83 1020.1
20260507185904 13 0.0 0.0 0.00 0.00 0.00 82 1020.5
20260507184909 13 0.0 0.0 0.00 0.00 0.00 81 1020.3
20260507182909 13 0.0 0.0 0.00 0.00 0.00 81 1020.0
20260507180905 13 0.0 0.0 0.00 0.00 0.00 79 1019.9
20260507175905 13 0.0 0.0 0.00 0.00 0.00 78 1019.8
20260507174905 13 0.0 0.0 0.00 0.00 0.00 77 1019.7
20260507173905 13 0.0 0.0 0.00 0.00 0.00 77 1019.5
20260507172906 13 0.0 0.0 0.00 0.00 0.00 77 1019.5
20260507171909 13 0.0 0.0 0.00 0.00 0.00 76 1019.5
20260507164905 13 0.0 0.0 0.00 0.00 0.00 75 1019.2
20260507163905 13 0.0 0.0 0.00 0.00 0.00 75 1019.2
20260507162909 13 0.0 0.0 0.00 0.00 0.00 74 1019.2
20260507155904 14 0.0 0.0 0.00 0.00 0.00 74 1019.1
20260507154909 14 0.0 0.0 0.00 0.00 0.00 73 1019.0
20260507152905 14 0.0 0.0 0.00 0.00 0.00 73 1018.9
20260507151905 14 0.0 0.0 0.00 0.00 0.00 72 1018.8
20260507150905 14 0.0 0.0 0.00 0.00 0.00 73 1018.7
20260507145904 14 0.0 0.0 0.00 0.00 0.00 73 1018.7
20260507144906 14 0.0 0.0 0.00 0.00 0.00 75 1018.1
20260507143906 14 0.0 0.0 0.00 0.00 0.00 74 1018.6
20260507142904 14 0.0 0.0 0.00 0.00 0.00 73 1018.6
20260507141909 14 0.0 0.0 0.00 0.00 0.00 73 1018.6
20260507135905 14 0.0 0.0 0.00 0.00 0.00 73 1018.5
20260507134909 14 0.0 0.0 0.00 0.00 0.00 72 1018.5
20260507131906 15 0.0 0.0 0.00 0.00 0.00 70 1018.4
20260507130904 15 0.0 0.0 0.00 0.00 0.00 70 1018.3
20260507125904 14 0.0 0.0 0.00 0.00 0.00 70 1018.3
20260507124903 14 0.0 0.0 0.00 0.00 0.00 71 1018.3
20260507123904 14 0.0 0.0 0.00 0.00 0.00 71 1018.3
20260507122904 14 0.0 0.0 0.00 0.00 0.00 71 1018.2
20260507121904 14 0.0 0.0 0.00 0.00 0.00 71 1018.1
20260507120904 14 0.0 0.0 0.00 0.00 0.00 70 1018.0
20260507115904 15 0.0 0.0 0.00 0.00 0.00 69 1017.9
20260507114904 15 0.0 0.0 0.00 0.00 0.00 69 1017.8
20260507113904 15 0.0 0.0 0.00 0.00 0.00 68 1017.7
20260507112904 15 0.0 0.0 0.00 0.00 0.00 69 1017.8
20260507111905 15 0.0 0.0 0.00 0.00 0.00 66 1017.6
20260507110906 15 0.0 0.0 0.00 0.00 0.00 66 1017.6
20260507105909 15 0.0 0.0 0.00 0.00 0.00 65 1017.6
20260507103905 15 0.0 0.0 0.00 0.00 0.00 67 1017.7
20260507102905 15 0.0 0.0 0.00 0.00 0.00 66 1017.5
20260507101905 15 0.0 0.0 0.00 0.00 0.00 66 1017.5
20260507100905 15 0.0 0.0 0.00 0.00 0.00 67 1017.4
20260507095910 15 0.0 0.0 0.00 0.00 0.00 66 1017.4
20260507093904 15 0.0 0.0 0.00 0.00 0.00 67 1017.2
20260507092906 15 0.0 0.0 0.00 0.00 0.00 69 1017.1
20260507091910 14 0.0 0.0 0.00 0.00 0.00 68 1017.1
20260507085905 13 0.0 0.0 0.00 0.00 0.00 73 1017.1
20260507084905 13 0.0 0.0 0.00 0.00 0.00 73 1016.9
20260507083904 13 0.0 0.0 0.00 0.00 0.00 74 1017.0
20260507082904 12 0.0 0.0 0.00 0.00 0.00 77 1016.9
20260507081905 12 0.0 0.0 0.00 0.00 0.00 77 1016.3
20260507080904 12 0.0 0.0 0.00 0.00 0.00 79 1016.9
20260507075904 12 0.0 0.0 0.00 0.00 0.00 79 1016.8
20260507074905 12 0.0 0.0 0.00 0.00 0.00 78 1016.7
20260507073906 12 0.0 0.0 0.00 0.00 0.00 79 1016.6
20260507072905 12 0.0 0.0 0.00 0.00 0.00 79 1016.5
20260507071909 12 0.0 0.0 0.00 0.00 0.00 79 1016.4
20260507065905 12 0.0 0.0 0.00 0.00 0.00 79 1016.2
20260507064905 12 0.0 0.0 0.00 0.00 0.00 80 1016.2
20260507063905 12 0.0 0.0 0.00 0.00 0.00 79 1016.2
20260507062905 11 0.0 0.0 0.00 0.00 0.00 79 1016.1
20260507061904 11 0.0 0.0 0.00 0.00 0.00 79 1016.0
20260507060904 11 0.0 0.0 0.00 0.00 0.00 80 1015.8
20260507055909 11 0.0 0.0 0.00 0.00 0.00 78 1015.7
20260507054908 11 0.0 0.0 0.00 0.00 0.00 80 1015.6
20260507053905 11 0.0 0.0 0.00 0.00 0.00 79 1015.3
20260507052906 11 0.0 0.0 0.00 0.00 0.00 79 1015.3
20260507051910 11 0.0 0.0 0.00 0.00 0.00 80 1015.2
20260507045906 11 0.0 0.0 0.00 0.00 0.00 79 1014.9
20260507044907 11 0.0 0.0 0.00 0.00 0.00 79 1014.9
20260507043911 11 0.0 0.0 0.00 0.00 0.00 80 1014.8
20260507040907 11 0.0 0.0 0.00 0.00 0.00 81 1014.4
20260507035904 11 0.0 0.0 0.00 0.00 0.00 80 1014.4
20260507034909 12 0.0 0.0 0.00 0.00 0.00 80 1014.4
20260507032914 12 0.0 0.0 0.00 0.00 0.00 81 1014.3
20260507030905 12 0.0 0.0 0.00 0.00 0.00 80 1014.1
20260507025905 12 0.0 0.0 0.00 0.00 0.00 79 1014.2
20260507024905 12 0.0 0.0 0.00 0.00 0.00 79 1014.2
20260507023906 12 0.0 0.0 0.00 0.00 0.00 80 1014.1
20260507022910 12 0.0 0.0 0.00 0.00 0.00 80 1014.1
20260507020910 12 0.0 0.0 0.00 0.00 0.00 80 1014.0
20260507014904 12 0.0 0.0 0.00 0.00 0.00 80 1013.8
20260507013904 12 0.0 0.0 0.00 0.00 0.00 81 1013.7
20260507012904 12 0.0 0.0 0.00 0.00 0.00 81 1013.6
20260507011905 12 0.0 0.0 0.00 0.00 0.00 81 1013.6
20260507010909 12 0.0 0.0 0.00 0.00 0.00 81 1013.5
20260507003906 12 0.0 0.0 0.00 0.00 0.00 80 1013.5
20260507002904 12 0.0 0.0 0.00 0.00 0.00 80 1013.4
20260507001904 12 0.0 0.0 0.00 0.00 0.00 80 1013.4
20260507000904 12 0.0 0.0 0.00 0.00 0.00 80 1013.4
20260506235905 12 0.0 0.0 0.00 0.00 0.00 79 1013.3
20260506234909 12 0.0 0.0 0.00 0.00 0.00 78 1013.3
20260506231907 12 0.0 0.0 0.00 0.00 0.00 77 1013.0
20260506230905 12 0.0 0.0 0.00 0.00 0.00 77 1013.0
20260506225904 12 0.0 0.0 0.00 0.00 0.00 77 1013.0
20260506224904 13 0.0 0.0 0.00 0.00 0.00 77 1013.0